sat.trackr.live / text

‹ back to catalog

STARLINK-5799

NORAD 56002 · 2023-042S

PAYLOAD ACTIVE UNKNOWN

§ Identity

Operator
Country
US
Launch date
2023-03-24
Launch site
AFETR
Launch vehicle
Mass (kg)
RCS (m²)

Purposes: comms

External: N2YO · Heavens-Above · Gunter

§ Orbital elements

Epoch: 2026-09-20T19:43:11.069760Z

Period
94.27 min
Inclination
43.0054°
Eccentricity
0.0001577
Mean motion
15.27561401 rev/d
Perigee alt
482.0 km
Apogee alt
484.2 km
Semi-major
6,861.2 km
B*
-5.2603e-5
RAAN
37.4865°
Arg perigee
270.4702°
Mean anomaly
89.5968°
Rev number
19,271

§ Raw data

STARLINK-57991 56002U 23042S   26263.82165590 -.00001709  00000+0 -52603-4 0  99972 56002  43.0054  37.4865 0001577 270.4702  89.5968 15.27561401192713

JSON: /api/v1/satellites/56002 · /tle

For live sub-satellite position, see the globe view (requires WebGL).

§ Visibility from observer

Set your observer location to see the next 7 days of passes ≥ 10°. The values pass through the URL so the page stays shareable.

No JS? Fill the form by hand. The geolocation button needs JavaScript.